Location: Camp Crooked Creek
(37.9149°N, 85.6607°W)
Time: 18:06:19
(UTC-04:00)

Lacrosse 4 - Visible Passes

Search period start: 29 September 2016 00:00
Search period end: 09 October 2016 00:00
Orbit: 673 x 680 km, 68.0° (Epoch: 25 February)

Date Brightness Start Highest point End Pass type
(mag) Time Alt. Az. Time Alt. Az. Time Alt. Az.
29 Sep 4.8 20:25:01 10° WNW 20:27:43 15° WSW 20:30:26 10° SW visible
01 Oct 4.8 19:54:27 10° WNW 19:57:18 16° WSW 20:00:08 10° SW visible
05 Oct 4.9 06:56:42 10° SE 06:59:20 15° ESE 07:02:00 10° ENE visible
07 Oct 4.8 06:26:25 10° SE 06:28:55 14° ESE 06:31:25 10° ENE visible
08 Oct 3.1 06:59:06 10° S 07:03:38 44° ESE 07:08:11 10° NE visible
